Regional Weather Roundup
Issued by NWS

Home | Current Version | Previous Version | Text Only | Print | Product List | Glossary Off
Versions: 1 2 3 4 5 6 7 8 9 10 11 12 13 14 15 16 17 18 19 20 21 22 23 24 25 26 27 28 29 30 31 32 33 34 35 36 37 38 39 40 41 42 43 44 45 46 47 48 49 50

000
ASUS43 KIND 280009
RWRIN

WEATHER ROUNDUP FOR INDIANA
NATIONAL WEATHER SERVICE INDIANAPOLIS IN
800 PM EDT WED JUL 27 2016

NOTE: "FAIR" INDICATES FEW OR NO CLOUDS BELOW 12,000 FEET WITH NO
SIGNIFICANT WEATHER AND/OR OBSTRUCTIONS TO VISIBILITY.

* - STATION DOES NOT REPORT WEATHER SUCH AS PRECIPITATION OR FOG.

+ - STATION NOT QUALITY CONTROLLED BY THE NATIONAL WEATHER SERVICE.
    USE DATA WITH CAUTION...ESPECIALLY DEWPOINT AND RELATIVE
    HUMIDITY OBSERVATIONS.

INZ001>003-010>013-019-020-280100-
NORTHWEST INDIANA

CITY           SKY/WX    TMP DP  RH WIND       PRES   REMARKS
GARY /AIRPORT/ MOSUNNY   82  68  61 E5        29.92F
KNOX *+        SUNNY     82  55  39 CALM      29.94S
LA PORTE +     SUNNY     83  65  53 NE6       29.96S
6HR MIN TEMP:  83; 6HR MAX TEMP:  89;

MICHIGAN CITY+ SUNNY     81  64  57 CALM      29.94F
MONTICELLO +   SUNNY     82  63  51 CALM      29.94R
6HR MIN TEMP:  81; 6HR MAX TEMP:  86;

RENSSELAER +   SUNNY     81  68  65 CALM      29.94F
VALPARAISO     PTSUNNY   84  66  54 S5        29.94F
6HR MIN TEMP:  82; 6HR MAX TEMP:  88;


$$

LMZ046-743>745-280100-
SOUTHERN LAKE MICHIGAN

STATION/POSITION TIME  TEMP    WIND        PRES    WAVE
                       AIR SEA DIR/SP/G            HT
                 (UTC) (F)     (DEG/KT/KT) (MB)    (FT)
BURNS HARBOR     2300   80      70/  9/ 11 1014.2S
MICHIGAN CITY    2300   78      20/ 11/ 11   N/A
5NW MICH CITY    0000   78 78   80/  8/ 10   N/A     1

$$

INZ004-005-014>016-021>024-280100-
NORTH CENTRAL INDIANA

CITY           SKY/WX    TMP DP  RH WIND       PRES   REMARKS
ELKHART        SUNNY     82  72  69 N7        29.96R
GOSHEN         SUNNY     82  67  60 CALM      29.94S
6HR MIN TEMP:  82; 6HR MAX TEMP:  90;

LOGANSPORT +   MOSUNNY   81  66  61 SW5       29.95S
PERU/GRISSOM   CLOUDY    83  67  58 W7        29.93F
6HR MIN TEMP:  83; 6HR MAX TEMP:  88;

ROCHESTER +    MOSUNNY   86  68  54 CALM      29.95S
SOUTH BEND     SUNNY     83  66  56 NW6       29.96R
6HR MIN TEMP:  83; 6HR MAX TEMP:  88;

WARSAW +       MOSUNNY   82  64  54 CALM      29.94F

$$

INZ006>009-017-018-025>027-280100-
NORTHEAST INDIANA

CITY           SKY/WX    TMP DP  RH WIND       PRES   REMARKS
ANGOLA *+      SUNNY     86  61  42 NW6       29.95S
AUBURN +       CLEAR     86  55  35 W7        29.95R
FORT WAYNE     MOCLDY    85  63  47 W5        29.94S
6HR MIN TEMP:  85; 6HR MAX TEMP:  89;

HUNTINGTON +   CLOUDY    83  64  53 CALM      29.94S
6HR MIN TEMP:  81; 6HR MAX TEMP:  86;


$$

INZ028-029-035-036-043>045-051>053-280100-
WEST CENTRAL INDIANA

CITY           SKY/WX    TMP DP  RH WIND       PRES   REMARKS
CRAWFORDSVL +  CLOUDY    80  69  70 CALM      29.93F
6HR MIN TEMP:  79; 6HR MAX TEMP:  84;

GREENCASTLE +  CLOUDY    81  73  78 E3        29.94S
LAFAYETTE      CLOUDY    83  69  62 CALM      29.93S
6HR MIN TEMP:  83; 6HR MAX TEMP:  88;

TERRE HAUTE    SUNNY     84  74  71 CALM      29.91F
6HR MIN TEMP:  82; 6HR MAX TEMP:  88;


$$

INZ030>032-037>040-046>048-054>057-064-065-280100-
CENTRAL INDIANA

CITY           SKY/WX    TMP DP  RH WIND       PRES   REMARKS
COLUMBUS       PTCLDY    82  72  69 CALM      29.93F
INDIANAPOLIS   PTSUNNY   84  66  54 NW8       29.94F
6HR MIN TEMP:  83; 6HR MAX TEMP:  90;

-EAGLE CREEK   PTSUNNY   83  67  58 NE3       29.93F
6HR MIN TEMP:  83; 6HR MAX TEMP:  89;

KOKOMO *+      CLOUDY    84  64  51 W6        29.94S
6HR MIN TEMP:  84; 6HR MAX TEMP:  90;

MARION +         N/A     81  68  64 SW5       29.95S HAZE
MT COMFORT *+  CLOUDY    81  70  69 NE3       29.94F
SHELBYVILLE    MOSUNNY   85  72  65 CALM      29.93F
6HR MIN TEMP:  84; 6HR MAX TEMP:  90;

ZIONSVILLE +   PTSUNNY   79  70  74 CALM      29.95F
6HR MIN TEMP:  77; 6HR MAX TEMP:  84;


$$

INZ033-034-041-042-049-050-058-059-280100-
EAST CENTRAL INDIANA

CITY           SKY/WX    TMP DP  RH WIND       PRES   REMARKS
MUNCIE         PTCLDY    82  65  56 NW3       29.94F
6HR MIN TEMP:  82; 6HR MAX TEMP:  89;


$$

INZ060-061-067>069-081>083-085>088-280100-
SOUTHWEST INDIANA

CITY           SKY/WX    TMP DP  RH WIND       PRES   REMARKS
EVANSVILLE     CLOUDY    77  74  90 CALM      29.93R
6HR MIN TEMP:  74; 6HR MAX TEMP:  91; 6HR PCP:  0.59;

HUNTINGBURG *+ CLOUDY    79  73  83 NW3       29.93S
6HR MIN TEMP:  77; 6HR MAX TEMP:  88;

WASHINGTON +   CLOUDY    80  78  94 MISG      29.92R
6HR MIN TEMP:  80; 6HR MAX TEMP:  87;


$$

INZ062-063-066-070>080-084-089>092-280100-
SOUTH CENTRAL AND SOUTHEAST INDIANA

CITY           SKY/WX    TMP DP  RH WIND       PRES   REMARKS
BLOOMINGTON    MOSUNNY   81  71  71 CALM      29.94F
6HR MIN TEMP:  81; 6HR MAX TEMP:  88;

MADISON *+     PTCLDY    82  72  69 CALM      29.95S
SEYMOUR +      MOCLDY    84  73  70 CALM      29.93S

$$





USA.gov is the U.S. government's official web portal to all federal, state and local government web resources and services.